Weather History for KOPM - January, 2013

Change the Weather History Date:

Monday, January 28, 2013

  Actual Average Record
Temperature  
Mean Temperature 68 °F -  
Max Temperature 69 °F - - ()
Min Temperature 68 °F - - ()
Cooling Degree Days 4    
Growing Degree Days 18 (Base 50)    
Moisture  
Dew Point 68 °F    
Average Humidity 93    
Maximum Humidity 100    
Minimum Humidity 88    
Precipitation  
Precipitation 0.00 in - - ()
Sea Level Pressure  
Sea Level Pressure 30.00 in    
Wind  
Wind Speed 20 mph (SE)    
Max Wind Speed 25 mph    
Max Gust Speed -    
Visibility 3 miles    
Events      
T = Trace of Precipitation, MM = Missing Value Source: NWS Daily Summary

Daily Weather History Graph

Daily Weather History Graph

Search for Another Location

Airport or City:

Trip Planner

Search our weather history database for the weather conditions in past years. The results will help you decide how hot, cold, wet, or windy it might be!

Date:

Astronomy

Jan. 28, 2013 Rise Set
Actual Time 7:14 AM CST 6:07 PM CST
Civil Twilight 6:50 AM CST 6:31 PM CST
Nautical Twilight 6:22 AM CST 6:59 PM CST
Astronomical Twilight 5:54 AM CST 7:27 PM CST
Moon 7:47 PM CST (1/28) 7:54 AM CST (1/28)
Length of Visible Light 11h 41m
Length of Day
10h 52m
Full, 98% of the Moon is Illuminated
Jan 28
Full
Feb 3
Last Quarter
Feb 10
New
Feb 17
First Quarter
Feb 25
Full

Hourly Weather History & Observations

Time (CST) Temp. Dew Point Humidity Pressure Visibility Wind Dir Wind Speed Gust Speed Precip Events Conditions
12:15 AM 69.8 °F 68.0 °F 94% 30.04 in 3.0 mi SE 20.7 mph - N/A   Overcast
12:35 AM 69.8 °F 68.0 °F 94% 30.04 in 4.0 mi SE 18.4 mph - N/A   Overcast
12:55 AM 69.8 °F 68.0 °F 94% 30.04 in 4.0 mi SE 19.6 mph - N/A   Overcast
1:15 AM 69.8 °F 68.0 °F 94% 30.04 in 4.0 mi SE 20.7 mph - N/A   Overcast
1:35 AM 69.8 °F 68.0 °F 94% 30.04 in 4.0 mi SE 20.7 mph - N/A   Overcast
1:55 AM 69.8 °F 68.0 °F 94% 30.04 in 3.0 mi SE 20.7 mph - N/A   Overcast
2:15 AM 69.8 °F 68.0 °F 94% 30.04 in 3.0 mi SE 19.6 mph - N/A   Overcast
2:35 AM 69.8 °F 68.0 °F 94% 30.04 in 3.0 mi SE 21.9 mph - N/A   Overcast
3:15 AM 69.8 °F 68.0 °F 94% 30.04 in 3.0 mi SE 20.7 mph - N/A   Overcast
3:35 AM 69.8 °F 68.0 °F 94% 30.03 in 3.0 mi SE 19.6 mph - N/A   Overcast
3:55 AM 69.8 °F 68.0 °F 94% 30.03 in 3.0 mi ESE 19.6 mph - N/A   Overcast
4:15 AM 69.8 °F 68.0 °F 94% 30.02 in 3.0 mi ESE 20.7 mph - N/A   Overcast
4:35 AM 69.8 °F 68.0 °F 94% 30.02 in 3.0 mi ESE 20.7 mph - N/A   Overcast
4:55 AM 69.8 °F 68.0 °F 94% 30.02 in 3.0 mi SE 21.9 mph - N/A   Overcast
5:15 AM 69.8 °F 68.0 °F 94% 30.02 in 3.0 mi SE 24.2 mph - N/A   Overcast
6:15 AM 69.8 °F 68.0 °F 94% 30.02 in 3.0 mi ESE 23.0 mph - N/A   Scattered Clouds
6:35 AM 69.8 °F 68.0 °F 94% 30.02 in 2.5 mi ESE 21.9 mph - N/A   Clear
6:55 AM 69.8 °F 68.0 °F 94% 30.03 in 2.5 mi ESE 21.9 mph - N/A   Clear
7:15 AM 69.8 °F 68.0 °F 94% 30.03 in 2.0 mi ESE 21.9 mph - N/A   Partly Cloudy
7:35 AM 69.8 °F 68.0 °F 94% 30.04 in 2.0 mi SE 20.7 mph - N/A   Mostly Cloudy
7:55 AM 68.0 °F 68.0 °F 100% 30.04 in 2.5 mi SE 19.6 mph - N/A   Scattered Clouds
8:15 AM 68.0 °F 68.0 °F 100% 30.04 in 2.5 mi ESE 21.9 mph - N/A   Clear
8:35 AM 69.8 °F 68.0 °F 94% 30.05 in 3.0 mi ESE 21.9 mph - N/A   Clear
8:55 AM 69.8 °F 66.2 °F 88% 30.05 in 3.0 mi SE 21.9 mph - N/A   Clear
9:15 AM 69.8 °F 66.2 °F 88% 30.06 in 3.0 mi SE 21.9 mph - N/A   Clear
9:35 AM 69.8 °F 66.2 °F 88% 30.07 in 3.0 mi SE 21.9 mph - N/A   Mostly Cloudy
9:55 AM 69.8 °F 66.2 °F 88% 30.07 in 3.0 mi SE 20.7 mph - N/A   Scattered Clouds
10:15 AM 69.8 °F 66.2 °F 88% 30.08 in 3.0 mi SE 20.7 mph - N/A   Clear
10:35 AM 69.8 °F 66.2 °F 88% 30.07 in 3.0 mi SE 20.7 mph - N/A   Clear
10:55 AM 69.8 °F 66.2 °F 88% 30.07 in 3.0 mi SE 19.6 mph - N/A   Clear
11:15 AM 69.8 °F 66.2 °F 88% 30.07 in 3.0 mi SE 19.6 mph - N/A   Clear
11:35 AM 69.8 °F 66.2 °F 88% 30.06 in 3.0 mi SE 19.6 mph - N/A   Clear
11:55 AM 69.8 °F 66.2 °F 88% 30.06 in 3.0 mi SE 18.4 mph - N/A   Clear
12:15 PM 69.8 °F 66.2 °F 88% 30.05 in 2.5 mi ESE 18.4 mph - N/A   Clear
12:35 PM 69.8 °F 66.2 °F 88% 30.04 in 3.0 mi ESE 18.4 mph - N/A   Clear
12:55 PM 69.8 °F 66.2 °F 88% 30.03 in 3.0 mi SE 19.6 mph - N/A   Clear
1:15 PM 69.8 °F 66.2 °F 88% 30.01 in 2.5 mi ESE 20.7 mph - N/A   Clear
1:35 PM 69.8 °F 66.2 °F 88% 30.00 in 2.5 mi ESE 19.6 mph - N/A   Clear
1:55 PM 69.8 °F 66.2 °F 88% 29.99 in 2.5 mi ESE 19.6 mph - N/A   Clear
2:15 PM 69.8 °F 66.2 °F 88% 29.98 in 2.5 mi ESE 18.4 mph - N/A   Clear
2:35 PM 69.8 °F 66.2 °F 88% 29.97 in 2.5 mi ESE 19.6 mph - N/A   Clear
2:55 PM 69.8 °F 68.0 °F 94% 29.97 in 2.5 mi ESE 18.4 mph - N/A   Clear
3:15 PM 69.8 °F 68.0 °F 94% 29.97 in 2.5 mi ESE 18.4 mph - N/A   Clear
3:35 PM 69.8 °F 68.0 °F 94% 29.96 in 2.0 mi ESE 19.6 mph - N/A   Clear
3:55 PM 69.8 °F 68.0 °F 94% 29.96 in 2.0 mi SE 18.4 mph - N/A   Clear
4:15 PM 69.8 °F 68.0 °F 94% 29.96 in 2.0 mi SE 19.6 mph - N/A   Clear
4:25 PM 69.8 °F 68.0 °F 94% 29.96 in 2.0 mi SE 19.6 mph - N/A   Partly Cloudy
5:55 PM - - N/A% 29.94 in - SE 20.7 mph - N/A   Unknown
6:15 PM 69.8 °F 68.0 °F 94% 29.93 in 2.0 mi SE 25.3 mph - N/A   Mist
6:35 PM 69.8 °F 68.0 °F 94% 29.94 in 3.0 mi SE 23.0 mph - N/A   Mostly Cloudy
6:55 PM 69.8 °F 68.0 °F 94% 29.94 in - SE 23.0 mph - N/A   Mostly Cloudy
7:15 PM 69.8 °F 68.0 °F 94% 29.94 in 2.5 mi SE 21.9 mph - N/A   Overcast
7:35 PM 69.8 °F 68.0 °F 94% 29.94 in 2.5 mi SE 21.9 mph - N/A   Overcast
7:55 PM 68.0 °F 68.0 °F 100% 29.94 in 2.0 mi SE 21.9 mph - N/A   Scattered Clouds
8:15 PM 69.8 °F 68.0 °F 94% 29.94 in 2.0 mi SE 21.9 mph - N/A   Clear
8:35 PM 68.0 °F 68.0 °F 100% 29.94 in 2.0 mi SE 20.7 mph - N/A   Clear
8:55 PM 68.0 °F 68.0 °F 100% 29.94 in 2.0 mi SE 20.7 mph - N/A   Clear
9:15 PM 68.0 °F 68.0 °F 100% 29.94 in 2.0 mi SE 20.7 mph - N/A   Clear
9:35 PM 69.8 °F 68.0 °F 94% 29.94 in 2.5 mi SE 20.7 mph - N/A   Clear
9:55 PM 69.8 °F 68.0 °F 94% 29.94 in 2.5 mi SE 19.6 mph - N/A   Clear
10:15 PM 68.0 °F 68.0 °F 100% 29.94 in 2.5 mi SE 19.6 mph - N/A   Clear
10:35 PM 68.0 °F 68.0 °F 100% 29.94 in 2.5 mi SE 18.4 mph - N/A   Clear
10:55 PM 68.0 °F 68.0 °F 100% 29.94 in 2.0 mi SE 17.3 mph - N/A   Clear
11:15 PM 68.0 °F 68.0 °F 100% 29.93 in 2.5 mi SE 19.6 mph - N/A   Clear
11:35 PM 68.0 °F 68.0 °F 100% 29.93 in 2.5 mi SE 18.4 mph - N/A   Clear
11:55 PM 68.0 °F 68.0 °F 100% 29.93 in 3.0 mi SE 19.6 mph - N/A   Clear